Home   Weather   Kralendijk   Past weeks

Flag for Caribbean Netherlands Past Weather in Kralendijk, Bonaire, Caribbean Netherlands — Yesterday and Last 2 Weeks

Now
88 °F

Partly sunny.


Feels Like: 96 °F
Forecast: N/A
Wind: 17 mph from East

Location: Flamingo Airport - Bonaire

Current Time: May 27, 2017 at 11:38:30 am

Latest Report: May 27, 2017 at 10:55 am


Visibility: N/A

Pressure: 29.98 "Hg

Humidity: 62%

Dew Point: 73 °F

Location of KralendijkLocation

Past Weather in Kralendijk — Graph

°F

Kralendijk Temperature Yesterday

Maximum temperature yesterday: 88 °F (at 9:55 am)
Minimum temperature yesterday: 81 °F (at 8:55 pm)
Average temperature yesterday: 84 °F

High & Low Weather Summary for the Past Weeks

 TemperatureHumidityPressure
High90 °F (May 12, 10:55 am)89% (May 12, 8:55 pm)29.98 "Hg (May 12, 8:55 pm)
Low79 °F (May 19, 3:55 am)62% (May 17, 12:55 pm)29.80 "Hg (May 18, 5:55 pm)
Average84 °F76%29.90 "Hg
* Reported May 12 9:55 am — May 27 9:55 am, Kralendijk. Weather by CustomWeather, © 2017

Note: Actual official high and low records may vary slightly from our data, if they occured in-between our weather recording intervals... More about our weather records

Advertising

Kralendijk Weather History for the Previous 24 Hours

Scroll right to see more
 ConditionsComfort  
Time TempWeatherWind HumidityBarometerVisibility
9:55 am
Sat, May 27
84 °FBroken clouds.18 mph70%29.98 "HgN/A
8:55 am86 °FPassing clouds.16 mph70%29.98 "HgN/A
7:55 am82 °FScattered clouds.18 mph74%29.95 "HgN/A
6:55 am82 °FPassing clouds.17 mph74%29.95 "HgN/A
5:55 am81 °FPassing clouds.15 mph79%29.92 "HgN/A
4:55 am81 °FPartly cloudy.15 mph79%29.92 "HgN/A
3:55 am81 °FPassing clouds.14 mph79%29.92 "HgN/A
2:55 am81 °FPassing clouds.16 mph79%29.92 "HgN/A
1:55 am81 °FPassing clouds.16 mph79%29.95 "HgN/A
12:55 am81 °FPassing clouds.15 mph79%29.95 "HgN/A
11:55 pm
Fri, May 26
81 °FPassing clouds.15 mph79%29.98 "HgN/A
10:55 pm81 °FPassing clouds.17 mph79%29.98 "HgN/A
9:55 pm81 °FWarm.16 mph79%29.95 "HgN/A
8:55 pm81 °FPassing clouds.16 mph79%29.95 "HgN/A
7:55 pm82 °FClear.16 mph74%29.92 "Hg10 mi
6:55 pm82 °FPassing clouds.16 mph74%29.89 "HgN/A
5:55 pm84 °FSunny.21 mph70%29.89 "Hg10 mi
4:55 pm84 °FScattered clouds.21 mph70%29.89 "HgN/A
3:55 pm88 °FScattered clouds.22 mph62%29.92 "HgN/A
2:55 pm86 °FMostly cloudy.21 mph66%29.92 "HgN/A
1:55 pm88 °FScattered clouds.21 mph62%29.95 "HgN/A
12:55 pm88 °FPartly sunny.21 mph62%29.98 "HgN/A
11:55 am88 °FScattered clouds.20 mph62%29.98 "HgN/A
Weather by CustomWeather, © 2017

See weather overviewHow to use our weather pages